Location: Ferma
(41.9500°N, 44.5167°E)
Time: 12:02:37
(UTC+00:00)

Cosmos 1269 Rocket - Visible Passes

Search period start: 29 May 2022 00:00
Search period end: 08 June 2022 00:00
Orbit: 773 x 778 km, 74.1° (Epoch: 28 May)

Date Brightness Start Highest point End Pass type
(mag) Time Alt. Az. Time Alt. Az. Time Alt. Az.
29 May 6.0 20:49:09 10° N 20:53:10 21° ENE 20:55:47 15° E visible
29 May 4.1 22:30:36 10° NNW 22:35:42 52° WSW 22:36:10 50° WSW visible
30 May 6.4 20:15:15 10° NNE 20:18:02 14° NE 20:20:47 10° E visible
30 May 3.9 21:55:41 10° NNW 22:00:59 85° WSW 22:01:36 70° S visible
31 May 4.3 21:20:56 10° NNW 21:26:10 60° ENE 21:27:04 52° ESE visible
31 May 5.7 23:04:34 10° WNW 23:07:28 17° W 23:07:28 17° W visible
01 Jun 5.1 20:46:20 10° N 20:51:15 38° ENE 20:52:35 32° E visible
01 Jun 5.2 22:28:53 10° NW 22:32:58 27° W 22:32:58 27° W visible
02 Jun 5.7 20:11:56 10° N 20:16:15 25° ENE 20:18:07 20° E visible
02 Jun 4.5 21:53:40 10° NNW 21:58:32 44° W 21:58:32 44° W visible
03 Jun 6.2 19:37:53 10° NNE 19:41:09 16° NE 19:43:43 12° E visible
03 Jun 3.9 21:18:41 10° NNW 21:23:57 73° WSW 21:24:07 72° WSW visible
04 Jun 6.5 19:04:55 10° NE 19:05:55 10° NE 19:06:55 10° ENE visible
04 Jun 4.0 20:43:53 10° NNW 20:49:10 70° ENE 20:49:44 64° ESE visible
04 Jun 6.0 22:28:02 10° WNW 22:30:08 14° W 22:30:08 14° W visible
05 Jun 4.7 20:09:15 10° N 20:14:17 43° ENE 20:15:23 38° E visible
05 Jun 5.5 21:52:05 10° NW 21:55:47 23° W 21:55:47 23° W visible
06 Jun 5.4 19:34:46 10° N 19:39:19 28° ENE 19:41:03 23° E visible
06 Jun 4.8 21:16:45 10° NW 21:21:28 38° W 21:21:28 38° W visible
07 Jun 6.0 19:00:34 10° NNE 19:04:14 19° NE 19:06:45 14° E visible
07 Jun 4.1 20:41:42 10° NNW 20:46:55 62° WSW 20:47:10 61° WSW visible
